Zurück zum Katalog

Zorkiy-2M 5

AktivWissenschaftSSO
NORAD 67295·PAYLOAD·🇷🇺 Russia

Gestartet Dec 28, 2025 von Vostochny Cosmodrome

Loading…

Nächste Überflüge (nächste 24 Stunden)

TLE

AktuellSource: Space-Track

Epoche: Sep 14, 2026, 15:26 UTC

1 67295U 25313AZ  26257.64327699  .00005501  00000-0  22138-3 0  9991
2 67295  97.3865 331.4307 0010909  39.1293 321.0732 15.25242001 39604

Verfolge Zorkiy-2M 5 in Echtzeit mit AllMySat

Download on the App Store